CAPE
1196 1714 1730 1785 1702 1650 1683 1816 1377 1213 1119 1311 1220 1185 565 1420 1561 1461 1605 1676 1816 1340 1189 1435 960 1136 1358 1051 925 1105 537 603 670 193 705 604 569 412 443 203 154 70 84
1263 1853 1821 1803 1841 1834 1710 1779 1469 1188 1320 1426 1320 1193 1372 1311 1322 1496 1392 1503 1488 1469 1169 1540 1489 1435 1409 1267 808 576 459 794 658 502 564 438 517 469 535 154 461 74 237
1374 1838 1987 2071 2101 1842 1729 1725 1577 1331 1347 1411 1516 1132 1480 1078 1263 679 841 1430 1450 1584 1517 1446 1306 1184 1384 1025 809 128 785 913 554 742 71 202 584 427 300 817 824 0 259
1383 1606 1894 1920 1917 1934 1687 1708 1629 1420 1286 1322 1382 1335 1208 1568 1437 1431 950 270 830 1149 1363 1399 1488 1288 1059 886 541 415 572 651 396 653 326 18 298 578 714 31 0 340 627
1396 1686 1955 1889 1754 1605 1625 1698 1624 1520 1201 1150 1241 1364 1461 1449 1473 1574 1208 582 403 329 966 1300 1331 931 706 1154 460 420 219 304 388 399 454 0 168 552 659 144 503 610 488
1601 1711 1962 1891 1947 1840 1734 1706 1604 1568 1426 1391 1397 1450 1567 1540 1653 1656 1458 1334 1329 647 598 999 1349 894 1081 1125 592 473 284 170 383 542 178 110 5 313 795 113 383 555 102
1190 1885 1932 2057 2007 1971 1909 1939 1869 1538 1454 1647 1723 1738 1741 1611 1702 1691 1774 1487 1434 1316 798 895 840 1259 1258 1214 469 384 524 677 623 567 229 122 109 354 476 144 143 281 97
701 1518 1783 1869 1958 2031 1987 1845 1811 1789 1669 1822 1772 1660 1621 1479 1529 1576 1715 1679 1510 1249 1411 504 778 1186 1289 1381 844 468 504 564 759 686 215 46 145 54 197 94 8 471 193
1221 1171 1379 1682 1901 1970 1914 1811 1821 1876 1916 1920 1963 1883 1769 1567 1495 1432 1507 1269 1201 1048 1176 1344 675 868 1195 1330 903 726 512 528 681 606 196 52 0 0 0 92 0 472 0
1447 1036 1055 1348 1407 1592 1845 1879 1891 1917 1745 1785 1974 2035 1973 1933 1674 1668 1677 1341 943 1042 877 922 1019 1153 771 1146 973 602 458 411 187 272 247 2 0 232 204 471 337 41 574
1646 1490 1578 1510 1467 1581 1554 1656 1539 1574 1852 1749 1562 1766 1727 1652 1368 1145 1128 1115 960 820 870 895 1039 1103 989 219 1375 795 468 113 0 167 334 50 0 79 612 446 573 119 45
1448 1642 1832 1517 1496 1800 1964 1754 1307 1441 1044 1727 1553 1317 1321 986 1100 994 1140 1089 1320 1131 1188 971 773 911 1089 446 1100 977 400 13 0 151 164 14 1 12 261 213 480 212 0
1639 1760 1855 1807 1783 1563 1751 1752 1342 1588 1262 1063 1237 1484 1297 1097 891 740 1042 688 850 1084 801 1030 956 861 821 692 502 423 381 252 395 389 461 229 83 48 337 335 389 476 207
1822 1785 1859 2016 1991 1302 226 0 897 1242 1159 806 1086 1113 872 721 650 651 739 412 619 578 622 236 126 97 285 526 518 422 276 92 110 201 436 416 79 107 415 611 326 416 540
1614 1750 1860 1874 1961 1278 1018 908 432 142 536 75 301 369 161 364 354 488 447 491 297 39 381 196 21 0 0 109 567 605 525 429 320 296 368 494 235 182 249 592 624 634 636
1457 1611 1704 1896 1969 1862 1596 1007 684 434 808 584 472 125 1 450 545 388 258 96 8 203 66 57 0 1 42 68 347 539 327 485 559 468 479 621 431 368 113 306 578 757 945
1494 1723 1745 2001 2060 1901 1872 1723 1235 851 741 343 192 176 395 381 267 160 162 163 50 164 7 0 1 0 2 65 531 840 679 572 546 527 655 346 576 547 242 140 493 638 590
1747 2128 2245 2257 2154 2007 1942 1749 1298 399 279 156 25 16 43 333 150 149 132 56 67 112 22 32 13 0 0 98 457 540 812 710 738 830 745 805 746 655 445 218 223 384 805
1854 2268 2466 2425 2100 1887 1810 1484 1049 424 160 78 0 3 0 49 93 101 73 65 89 0 0 8 125 138 236 264 350 397 451 433 894 977 939 715 955 817 747 458 317 254 230
2154 2510 2466 2389 2157 1929 1675 1582 1035 277 144 169 72 10 20 1 45 88 81 46 72 76 8 0 58 167 97 2 176 173 181 211 329 517 518 841 888 725 748 715 658 472 273
2559 2669 2573 2603 2274 1739 1561 1734 1210 219 39 55 2 59 14 78 70 71 239 170 272 241 355 354 146 0 61 131 213 198 220 364 466 376 496 657 778 862 797 714 578 451 338
2929 2898 2952 2847 2441 1974 1739 1808 1180 326 34 30 30 77 83 38 506 444 419 335 346 386 218 215 105 41 31 116 141 195 125 100 220 249 306 486 476 523 506 567 468 274 209
3012 3227 3176 2827 2479 2243 2179 1412 794 415 126 161 386 598 1101 1333 1080 642 428 388 394 352 274 293 219 167 155 129 190 129 83 17 40 155 313 364 324 312 339 263 212 125 40
3223 3563 3372 2933 2656 2270 1789 1066 446 146 243 463 719 1015 977 1114 791 808 374 228 149 141 117 168 186 60 73 67 44 75 45 34 24 22 97 229 141 167 265 106 39 33 4
3551 3799 3403 3102 2725 2380 2023 1272 1145 490 631 931 863 882 489 464 612 283 219 139 69 23 58 141 144 144 170 131 134 96 90 90 100 110 14 97 1 4 62 282 28 155 43
3882 3908 3391 3020 2456 2532 1181 1487 829 736 1183 1200 951 632 525 530 441 387 180 65 0 0 1 0 88 195 227 201 218 334 315 140 106 62 105 61 7 1 0 26 79 51 45
CIN
-40 -24 -12 -20 -27 -26 -22 -15 -36 -50 -56 -45 -56 -52 -104 -28 -14 -12 -0 -0 -0 -0 -0 -0 -8 -0 -0 -1 -6 -1 -15 -10 -6 -37 -10 -12 -9 -1 -1 -6 -20 -10 -0
-76 -5 -17 -21 -17 -17 -19 -18 -35 -51 -45 -34 -44 -49 -33 -20 -20 -2 -3 -2 -0 -0 -1 -0 -0 -0 -0 -0 -9 -15 -17 -2 -3 -16 -15 -26 -12 -3 -1 -4 -1 -13 -1
-68 -17 -9 -8 -7 -14 -15 -18 -27 -40 -45 -35 -26 -49 -28 -37 -13 -56 -49 -2 -3 -0 -0 -0 -0 -0 -0 -0 -8 -52 -5 -0 -5 -8 -24 -35 -12 -10 -6 -0 -0 -0 -9
-78 -47 -23 -21 -20 -12 -18 -16 -20 -30 -38 -34 -33 -34 -41 -11 -22 -13 -26 -95 -33 -10 -0 -0 -0 -0 -0 -3 -19 -36 -27 -19 -13 -5 -5 -23 -21 -13 -5 -2 -0 -2 -2
-78 -52 -23 -25 -29 -30 -25 -15 -18 -19 -41 -46 -39 -29 -29 -11 -4 -2 -18 -67 -65 -69 -9 -0 -0 -0 -3 -0 -32 -40 -43 -32 -21 -9 -7 -0 -44 -23 -8 -26 -2 -0 -0
-67 -61 -36 -30 -18 -16 -16 -20 -22 -20 -19 -24 -21 -18 -10 -9 -0 -0 -11 -20 -7 -39 -31 -4 -1 -0 -0 -0 -29 -31 -50 -48 -33 -16 -25 -36 -4 -37 -15 -35 -5 -1 -30
-106 -46 -44 -27 -25 -13 -10 -7 -7 -23 -35 -17 -12 -6 -3 -5 -0 -0 -0 -8 -10 -6 -21 -10 -9 -0 -0 -0 -37 -39 -40 -31 -31 -13 -16 -49 -62 -40 -25 -40 -36 -7 -39
-157 -107 -66 -44 -22 -8 -12 -15 -6 -4 -6 -5 -9 -12 -8 -12 -9 -1 -0 -0 -1 -7 -7 -49 -21 -0 -0 -0 -17 -37 -37 -33 -21 -21 -34 -84 -58 -30 -56 -58 -7 -5 -34
-149 -151 -112 -73 -27 -9 -9 -15 -6 -0 -0 -0 -0 -1 -4 -10 -9 -7 -2 -21 -11 -9 -14 -5 -23 -7 -0 -0 -16 -30 -37 -40 -35 -19 -32 -77 -0 -0 -0 -68 -0 -6 -0
-105 -132 -120 -105 -80 -38 -7 -0 -0 -0 -1 -0 -0 -1 -0 -0 -7 -5 -0 -5 -26 -10 -15 -7 -11 -3 -12 -0 -19 -38 -49 -47 -54 -29 -28 -64 -0 -56 -50 -38 -32 -62 -0
-69 -100 -101 -100 -89 -59 -43 -31 -33 -26 -3 -6 -12 -6 -10 -16 -22 -37 -36 -18 -21 -33 -28 -12 -5 -4 -6 -62 -2 -35 -51 -72 -0 -48 -18 -68 -0 -66 -32 -46 -24 -53 -57
-54 -69 -79 -85 -76 -47 -30 -31 -62 -49 -58 -26 -31 -34 -24 -37 -31 -19 -10 -24 -11 -17 -11 -13 -17 -10 -3 -38 -14 -22 -60 -61 -0 -43 -32 -49 -36 -31 -61 -62 -34 -42 -0
-52 -58 -63 -62 -50 -39 -35 -27 -37 -36 -54 -53 -33 -26 -20 -29 -25 -22 -10 -31 -30 -17 -33 -17 -6 -14 -22 -21 -41 -56 -65 -61 -47 -33 -25 -33 -51 -56 -46 -62 -52 -25 -32
-33 -38 -43 -43 -29 -57 -138 -0 -114 -31 -21 -48 -26 -19 -17 -29 -35 -34 -40 -61 -44 -73 -52 -102 -78 -60 -61 -47 -39 -49 -60 -67 -59 -37 -30 -35 -41 -51 -29 -43 -72 -48 -15
-24 -38 -45 -37 -27 -41 -53 -91 -137 -135 -70 -133 -70 -48 -107 -56 -32 -41 -60 -61 -78 -162 -82 -136 -175 -0 -0 -78 -38 -27 -49 -42 -40 -35 -34 -44 -66 -56 -41 -28 -60 -52 -30
-36 -35 -44 -36 -29 -21 -53 -76 -63 -89 -58 -63 -55 -106 -105 -42 -22 -49 -79 -113 -28 -96 -190 -162 -0 -8 -171 -111 -44 -30 -32 -33 -27 -24 -46 -48 -56 -60 -55 -36 -44 -50 -28
-60 -47 -42 -33 -36 -37 -32 -14 -30 -31 -27 -35 -52 -79 -58 -31 -35 -83 -104 -98 -123 -127 -217 -100 -14 -0 -81 -122 -7 -20 -24 -21 -26 -22 -37 -47 -32 -52 -50 -49 -36 -47 -49
-49 -44 -41 -37 -49 -46 -37 -39 -43 -47 -45 -51 -75 -73 -53 -32 -71 -80 -90 -142 -128 -97 -127 -138 -210 -0 -32 -89 -16 -16 -12 -13 -12 -17 -22 -33 -44 -55 -48 -38 -39 -34 -28
-55 -47 -45 -51 -61 -55 -49 -57 -47 -60 -80 -61 -20 -37 -0 -84 -72 -68 -111 -127 -79 -0 -0 -174 -121 -99 -62 -34 -35 -28 -26 -23 -26 -21 -22 -13 -30 -38 -53 -50 -45 -39 -47
-66 -47 -51 -55 -47 -63 -72 -68 -72 -145 -130 -47 -54 -65 -66 -49 -68 -84 -104 -110 -75 -80 -116 -0 -102 -47 -69 -22 -37 -33 -44 -52 -32 -19 -20 -20 -23 -27 -36 -41 -44 -44 -45
-73 -65 -64 -50 -58 -83 -76 -63 -83 -193 -267 -185 -211 -91 -100 -70 -81 -67 -43 -52 -34 -30 -41 -45 -62 -0 -58 -48 -25 -23 -30 -30 -26 -39 -35 -25 -24 -25 -21 -29 -25 -61 -46
-77 -75 -68 -58 -73 -69 -80 -53 -91 -192 -302 -292 -230 -152 -111 -112 -35 -41 -39 -32 -29 -37 -32 -16 -11 -27 -23 -17 -6 -10 -7 -38 -58 -61 -49 -36 -27 -28 -23 -41 -39 -46 -47
-83 -78 -55 -70 -77 -72 -53 -102 -141 -185 -247 -196 -79 -50 -12 -13 -14 -24 -32 -35 -26 -20 -21 -19 -15 -14 -17 -25 -20 -12 -7 -50 -51 -54 -52 -37 -22 -18 -32 -62 -100 -63 -73
-80 -63 -67 -92 -83 -82 -91 -133 -180 -227 -146 -93 -46 -21 -16 -13 -18 -10 -21 -25 -30 -28 -26 -25 -19 -25 -24 -28 -32 -36 -32 -20 -12 -31 -51 -51 -52 -41 -26 -66 -120 -119 -103
-62 -74 -82 -96 -85 -76 -65 -117 -91 -111 -77 -47 -32 -16 -32 -32 -15 -21 -31 -44 -60 -76 -43 -36 -35 -36 -28 -25 -25 -22 -20 -19 -18 -5 -26 -31 -0 -72 -42 -51 -101 -37 -60
-54 -77 -85 -97 -105 -59 -158 -63 -98 -66 -12 -15 -24 -20 -17 -20 -16 -19 -55 -97 -0 -0 -1 -0 -9 -9 -23 -20 -29 -8 -6 -11 -14 -19 -12 -23 -56 -0 -0 -37 -17 -19 -32
Wind_Speed
23 23 23 21 22 22 23 22 21 21 20 19 19 19 19 18 18 20 17 14 11 12 13 12 10 10 13 14 14 8 8 14 19 20 15 16 12 6 27 29 28 28 28
26 24 22 21 22 22 22 22 21 21 20 19 19 19 19 20 19 24 18 9 7 9 11 11 11 11 11 11 12 8 6 9 27 25 26 22 13 8 15 28 27 28 28
25 24 22 22 22 22 21 21 21 20 20 19 18 18 19 21 23 25 7 2 7 8 11 10 9 9 11 10 7 6 7 7 25 28 25 24 23 23 25 26 27 27 26
26 23 22 21 20 21 21 21 21 20 20 18 17 17 17 18 19 23 15 9 17 6 10 8 8 8 7 6 11 12 26 27 27 27 23 27 24 24 26 26 27 27 25
26 24 22 21 20 20 21 21 21 21 21 20 18 18 19 19 19 20 21 18 8 11 10 9 7 7 9 13 17 19 21 23 22 21 22 25 24 24 26 26 26 26 26
26 23 22 21 21 20 20 21 21 20 20 19 18 18 18 19 20 19 18 16 11 10 10 8 10 8 11 15 17 20 21 22 21 15 20 25 23 24 24 24 25 25 25
25 23 22 21 20 20 19 18 18 19 18 17 17 14 13 15 17 16 16 11 4 18 11 10 11 11 13 17 19 20 20 18 18 19 24 23 22 22 22 22 23 23 23
23 22 21 20 19 18 18 16 16 15 15 15 15 14 12 11 11 11 11 11 10 14 9 11 12 13 14 18 19 20 19 18 17 16 24 21 21 22 21 21 21 21 21
23 23 21 19 18 17 16 15 14 13 13 13 12 11 11 11 11 11 11 11 11 11 14 11 13 14 15 17 19 20 19 18 18 16 21 17 19 20 20 20 20 20 19
24 23 22 20 18 16 14 13 12 11 11 11 11 11 11 14 17 15 12 14 14 13 15 11 14 14 12 16 19 21 21 19 18 16 12 15 16 17 18 17 18 18 17
23 22 21 20 18 16 13 12 12 11 11 10 10 9 10 12 19 19 19 20 18 19 17 19 18 15 13 16 18 22 23 21 21 18 9 11 12 14 16 14 15 15 16
22 21 20 19 18 16 16 12 11 10 10 11 9 9 8 4 22 21 23 20 19 20 20 20 20 20 20 16 15 18 22 23 23 20 9 9 9 11 13 12 13 13 13
21 21 20 19 18 17 15 12 10 9 8 10 8 8 7 12 14 15 16 13 17 19 20 20 20 22 23 22 15 16 18 22 23 23 8 5 6 8 10 9 10 10 10
21 20 19 18 18 17 14 11 10 8 7 6 8 3 11 8 14 15 12 15 14 16 18 19 23 24 26 25 26 10 3 12 20 21 13 6 6 3 6 6 6 8 8
20 19 18 17 17 15 14 13 10 7 7 5 9 5 18 19 11 12 10 13 12 18 18 19 25 25 27 28 27 12 7 20 27 18 14 2 5 4 2 2 3 3 5
20 18 17 16 15 15 14 11 8 9 8 5 6 6 4 23 13 16 14 16 21 16 17 18 28 31 29 30 29 15 16 15 28 23 8 5 0 1 0 1 1 1 2
18 17 16 15 13 13 13 14 12 7 6 7 11 11 6 10 13 15 22 24 21 16 16 16 10 31 31 30 21 5 5 7 30 21 10 5 3 1 2 1 1 0 1
18 17 17 15 14 14 15 16 17 15 12 11 9 14 10 9 13 14 19 26 22 19 20 19 21 28 31 30 29 25 13 5 21 27 10 2 6 6 3 3 4 4 4
17 17 16 16 15 14 15 17 20 19 14 16 12 16 10 11 21 18 22 25 19 18 18 5 22 26 28 29 29 29 29 25 31 22 23 13 8 8 9 6 3 3 3
16 16 16 15 14 15 16 18 21 23 22 20 13 15 14 18 17 18 20 23 22 19 16 9 11 17 23 26 23 25 26 28 16 6 17 27 16 11 11 11 7 6 4
15 15 14 14 14 14 14 15 17 20 21 21 19 16 13 13 15 21 16 22 21 20 21 16 16 16 19 22 27 25 23 23 19 11 8 27 10 20 14 21 21 11 11
14 14 14 13 14 14 14 13 17 18 18 18 18 15 14 15 11 11 14 19 19 20 21 21 7 7 3 15 7 9 15 24 4 15 12 6 6 14 19 20 17 19 21
14 13 13 13 12 13 14 16 17 17 18 17 16 16 16 16 16 15 17 18 20 20 21 20 20 19 13 17 16 13 17 14 23 18 2 3 13 14 11 16 18 18 19
13 14 13 13 12 12 13 14 15 14 15 14 16 17 17 17 18 18 16 17 18 19 20 21 21 22 18 21 26 4 3 11 16 21 19 15 13 13 12 12 12 17 14
13 13 14 13 11 12 12 12 12 13 12 14 15 15 13 13 16 16 17 18 18 19 19 19 20 21 20 22 24 17 7 6 2 4 19 15 15 16 15 14 12 12 10
13 12 14 12 13 13 12 13 12 12 16 15 16 14 11 13 17 17 18 18 18 19 19 19 19 19 20 20 20 16 7 8 12 6 10 14 12 16 14 14 13 12 11
Wind_Direction
101 99 97 86 90 90 87 85 80 76 73 67 63 57 51 46 52 50 37 27 19 21 24 16 5 10 29 30 31 5 6 38 57 57 46 46 34 183 114 92 82 84 84
105 103 93 86 91 91 90 86 83 81 77 72 68 64 57 60 56 72 51 3 347 355 13 12 17 18 20 20 24 3 0 25 114 76 78 65 32 15 59 102 80 90 88
98 95 89 87 88 92 90 87 87 87 84 79 73 69 63 73 80 106 202 360 333 345 5 8 356 4 22 16 357 0 19 55 146 98 79 74 64 61 69 74 86 87 80
100 94 88 85 84 88 91 93 94 91 90 82 75 71 65 70 74 102 184 148 48 296 1 329 336 343 333 325 213 194 137 126 134 126 114 116 77 76 87 81 101 95 83
98 95 91 86 83 84 88 93 94 93 95 94 85 84 88 90 84 94 99 76 315 1 346 339 300 317 248 210 187 184 176 160 160 159 160 119 87 85 94 98 102 113 98
91 94 93 89 90 87 87 91 94 92 92 93 93 89 91 103 102 95 92 71 9 340 330 292 251 272 240 211 199 187 178 166 167 188 151 106 95 99 102 105 97 95 101
90 94 92 91 92 90 84 79 83 92 92 92 92 76 68 86 96 75 79 247 340 138 280 280 262 258 234 210 200 197 193 198 194 180 157 109 103 104 101 98 103 105 96
97 101 96 89 86 84 83 78 77 78 78 83 84 80 57 34 11 353 357 346 344 65 356 288 276 262 248 215 211 209 210 212 210 213 133 118 105 112 107 105 106 101 100
95 101 97 89 87 85 82 77 75 66 59 60 53 47 28 24 11 352 359 353 340 334 256 305 289 274 255 233 221 220 223 222 218 223 128 104 107 114 112 105 108 104 98
100 98 98 95 97 89 74 63 51 51 52 51 54 60 52 113 142 276 88 295 288 304 279 326 278 276 284 262 237 227 227 234 233 235 88 106 104 111 109 105 107 107 102
104 103 101 96 100 100 81 72 77 83 86 81 69 65 69 106 167 183 188 230 244 231 254 236 255 278 294 273 262 241 236 241 235 257 335 91 92 94 110 98 105 103 105
106 101 101 100 103 107 115 84 88 95 101 114 98 92 70 354 206 216 221 241 176 203 223 243 249 247 257 284 286 268 252 245 240 258 338 86 92 98 108 95 104 102 104
112 107 110 98 100 106 108 96 93 94 103 126 113 103 69 319 305 299 283 308 238 263 258 255 255 243 242 247 285 281 277 263 260 259 319 64 76 94 110 95 95 102 100
111 108 105 102 99 104 107 114 123 131 134 35 342 41 326 333 309 308 312 294 306 303 282 280 262 247 227 238 216 144 38 293 276 275 301 332 325 84 110 96 86 100 103
102 106 104 104 95 94 89 98 120 101 53 41 343 326 287 289 311 315 323 312 327 300 302 301 282 262 246 234 230 161 137 181 238 286 303 149 114 138 66 75 68 79 100
100 96 106 99 96 81 80 81 83 49 37 32 357 333 58 258 302 291 309 304 291 315 314 317 266 256 250 237 219 172 172 172 224 275 310 295 186 145 114 347 106 56 92
104 101 103 98 85 78 66 57 45 38 24 8 342 303 323 308 302 298 277 274 292 316 320 325 201 238 243 243 191 171 174 161 231 287 309 293 303 247 192 345 322 225 157
102 98 98 95 85 77 64 54 42 34 30 10 348 292 318 317 312 305 291 259 295 311 312 318 237 237 237 238 243 274 307 312 292 274 307 268 300 304 257 275 317 314 300
99 97 99 97 94 83 71 57 49 50 76 57 31 290 328 312 284 294 275 274 308 313 326 35 265 254 236 238 254 251 268 289 268 294 293 300 300 300 303 296 271 300 306
100 96 90 90 87 77 69 59 59 66 73 58 259 311 5 270 282 283 287 286 296 312 328 0 352 201 216 235 214 224 228 235 210 266 297 281 296 302 296 297 298 301 298
101 96 93 88 86 82 74 69 66 70 82 81 76 115 227 297 282 228 232 282 279 299 289 327 245 163 203 212 265 230 222 221 210 203 208 281 296 293 301 293 293 298 304
105 101 92 89 86 80 70 76 61 69 80 87 84 118 227 242 7 53 170 268 302 297 298 300 49 143 147 325 348 346 328 304 245 206 203 214 235 296 298 297 297 300 299
112 102 95 91 83 79 71 64 56 59 70 78 83 67 278 278 313 328 321 313 289 304 309 313 317 321 334 315 325 331 327 334 308 329 164 204 311 312 316 302 301 305 312
115 95 97 89 76 78 81 68 64 71 64 73 67 58 331 308 313 319 333 323 315 322 319 311 305 304 323 223 289 163 186 328 325 314 332 336 332 327 325 322 321 326 307
106 95 94 87 76 79 82 74 68 63 61 56 52 56 2 223 288 321 329 322 322 323 317 315 307 301 312 296 289 329 8 159 136 353 317 333 338 341 337 335 346 349 9
93 88 80 74 69 74 69 58 54 49 24 25 13 33 61 47 358 334 326 326 326 321 317 309 310 314 313 304 304 338 112 33 1 27 344 334 338 336 336 344 5 359 9